Regional Weather Roundup
Issued by NWS

Home | Current Version | Previous Version | Graphics & Text | Print | Product List | Glossary On
Versions: 1 2 3 4 5 6 7 8 9 10 11 12 13 14 15 16 17 18 19 20 21 22 23 24 25 26 27 28 29 30 31 32 33 34 35 36 37 38 39 40 41 42 43 44 45 46 47 48 49 50
429
ASUS43 KLMK 261210
RWRKY
KENTUCKY REGIONAL WEATHER ROUNDUP
NATIONAL WEATHER SERVICE LOUISVILLE KY
800 AM EDT SUN MAR 26 2017

NOTE "FAIR" INDICATES FEW OR NO CLOUDS BELOW 12,000 FEET
WITH NO SIGNIFICANT WEATHER AND/OR OBSTRUCTIONS TO VISIBILITY.

KYZ001>023-026-027-061>063-070>075-261300-
WESTERN AND SOUTH CENTRAL KENTUCKY

CITY           SKY/WX    TMP DP  RH WIND       PRES   REMARKS
PADUCAH        CLOUDY    57  54  89 S5        29.91R
HENDERSON      CLOUDY    55  52  88 S8        29.91R
OWENSBORO      CLOUDY    57  56  96 S7        29.94R
HOPKINSVILLE   CLOUDY    57  57 100 S5        29.95R
BOWLING GREEN  CLOUDY    60  56  86 S10       29.97R
GLASGOW        CLOUDY   N/A N/A N/A S7        29.98R
$$

KYZ024-025-028>034-038-045-046-053-261300-
NORTH CENTRAL KENTUCKY

CITY           SKY/WX    TMP DP  RH WIND       PRES   REMARKS
LOUISVILLE/SDF LGT RAIN  58  55  90 S7        29.97R
LOUISVILLE/LOU LGT RAIN  58  55  90 S3        29.97S
FORT KNOX      LGT RAIN  55  55 100 SE5       29.95S FOG
$$

KYZ035>037-039>044-047>052-055>060-089>105-261300-
NORTHEAST KENTUCKY

CITY           SKY/WX    TMP DP  RH WIND       PRES   REMARKS
LEXINGTON      CLOUDY    57  54  89 S8        30.00S
COVINGTON      LGT RAIN  57  55  93 S9        29.97F
FRANKFORT      CLOUDY    57  53  86 S6        29.98S
$$

KYZ054-064>069-076>088-106>120-261300-
SOUTHEAST KENTUCKY

CITY           SKY/WX    TMP DP  RH WIND       PRES   REMARKS
JACKSON        LGT RAIN  55  52  89 CALM      30.05R
LONDON         CLOUDY    56  53  90 S5        30.03S
SOMERSET       CLOUDY    55  55 100 SE3       30.03F
MIDDLESBORO    MOCLDY    58  55  90 S6        30.08S
MONTICELLO     CLOUDY    59  56  89 NE7       30.03S
$$





USA.gov is the U.S. government's official web portal to all federal, state and local government web resources and services.